Weather History for Waskish, MN

Change the Weather History Date:

Sunday, March 3, 2013

  Actual Average (KBDE) Record (KBDE)
Temperature  
Mean Temperature 28 °F -  
Max Temperature 35 °F 30 °F 49 °F (1993)
Min Temperature 21 °F 3 °F -30 °F (1972)
Degree Days  
Heating Degree Days 37    
Moisture  
Dew Point 9 °F    
Average Humidity 46    
Maximum Humidity 63    
Minimum Humidity 34    
Precipitation  
Precipitation 0.00 in - - ()
Sea Level Pressure  
Sea Level Pressure 30.00 in    
Wind  
Wind Speed 6 mph (ESE)    
Max Wind Speed 13 mph    
Max Gust Speed 18 mph    
Visibility 10 miles    
Events      
Averages and records for this station are not official NWS values.
T = Trace of Precipitation, MM = Missing Value Source: NWS Daily Summary

Daily Weather History Graph

Daily Weather History Graph

Search for Another Location

Airport:

Trip Planner

Search our weather history database for the weather conditions in past years. The results will help you decide how hot, cold, wet, or windy it might be!

Date:

Astronomy

Mar. 03, 2013 Rise Set
Actual Time 6:54 AM CST 6:05 PM CST
Civil Twilight 6:23 AM CST 6:37 PM CST
Nautical Twilight 5:47 AM CST 7:13 PM CST
Astronomical Twilight 5:11 AM CST 7:49 PM CST
Moon 12:14 AM CST (3/3) 9:40 AM CST (3/3)
Length of Visible Light 12h 13m
Length of Day
11h 11m
Waning Gibbous, 63% of the Moon is Illuminated
Mar 3
Waning Gibbous
Mar 4
Last Quarter
Mar 11
New
Mar 19
First Quarter
Mar 27
Full

Hourly Weather History & Observations

Time (CST) Temp. Windchill Dew Point Humidity Pressure Visibility Wind Dir Wind Speed Gust Speed Precip Events Conditions
12:11 AM 24.8 °F 20.5 °F 10.4 °F 54% 30.08 in 10.0 mi East 3.5 mph - N/A   Overcast
12:31 AM 24.8 °F 20.5 °F 10.4 °F 54% 30.08 in 10.0 mi East 3.5 mph - N/A   Overcast
12:51 AM 24.8 °F 20.5 °F 10.4 °F 54% 30.08 in 10.0 mi ESE 3.5 mph - N/A   Overcast
1:11 AM 24.8 °F 20.5 °F 10.4 °F 54% 30.07 in 10.0 mi ESE 3.5 mph - N/A   Overcast
1:31 AM 24.8 °F - 10.4 °F 54% 30.07 in 10.0 mi Calm Calm - N/A   Overcast
1:51 AM 24.8 °F 20.5 °F 10.4 °F 54% 30.07 in 10.0 mi SE 3.5 mph - N/A   Overcast
2:11 AM 24.8 °F - 10.4 °F 54% 30.07 in 10.0 mi Calm Calm - N/A   Overcast
2:31 AM 23.0 °F - 10.4 °F 59% 30.06 in 10.0 mi Calm Calm - N/A   Overcast
2:51 AM 23.0 °F 18.4 °F 10.4 °F 59% 30.06 in 10.0 mi East 3.5 mph - N/A   Overcast
3:11 AM 23.0 °F 18.4 °F 10.4 °F 59% 30.06 in 10.0 mi East 3.5 mph - N/A   Overcast
3:31 AM 23.0 °F 17.0 °F 10.4 °F 59% 30.06 in 10.0 mi East 4.6 mph - N/A   Overcast
3:51 AM 23.0 °F - 10.4 °F 59% 30.06 in 10.0 mi Calm Calm - N/A   Overcast
4:11 AM 23.0 °F 18.4 °F 10.4 °F 59% 30.06 in 10.0 mi East 3.5 mph - N/A   Overcast
4:31 AM 23.0 °F 18.4 °F 10.4 °F 59% 30.06 in 10.0 mi ESE 3.5 mph - N/A   Overcast
4:51 AM 23.0 °F 17.0 °F 10.4 °F 59% 30.05 in 10.0 mi East 4.6 mph - N/A   Overcast
5:11 AM 23.0 °F 17.0 °F 10.4 °F 59% 30.05 in 10.0 mi ESE 4.6 mph - N/A   Overcast
5:30 AM 21.2 °F 16.4 °F 10.4 °F 63% 30.05 in 10.0 mi ESE 3.5 mph - N/A   Overcast
5:51 AM 21.2 °F 16.4 °F 10.4 °F 63% 30.05 in 10.0 mi ESE 3.5 mph - N/A   Overcast
6:11 AM 21.2 °F 12.6 °F 10.4 °F 63% 30.04 in 10.0 mi ESE 6.9 mph - N/A   Overcast
6:31 AM 21.2 °F 13.6 °F 10.4 °F 63% 30.04 in 10.0 mi ESE 5.8 mph - N/A   Overcast
6:51 AM 21.2 °F 12.6 °F 10.4 °F 63% 30.05 in 10.0 mi SE 6.9 mph - N/A   Overcast
7:11 AM 21.2 °F 12.6 °F 10.4 °F 63% 30.04 in 10.0 mi SE 6.9 mph - N/A   Overcast
7:31 AM 21.2 °F 12.6 °F 10.4 °F 63% 30.03 in 10.0 mi SE 6.9 mph - N/A   Overcast
7:51 AM 23.0 °F 17.0 °F 10.4 °F 59% 30.03 in 10.0 mi SSE 4.6 mph - N/A   Overcast
8:11 AM 23.0 °F 15.8 °F 10.4 °F 59% 30.02 in 10.0 mi SSE 5.8 mph - N/A   Overcast
8:30 AM 24.8 °F 19.1 °F 10.4 °F 54% 30.03 in 10.0 mi SE 4.6 mph - N/A   Overcast
8:51 AM 24.8 °F 16.1 °F 10.4 °F 54% 30.02 in 10.0 mi SSE 8.1 mph - N/A   Overcast
9:11 AM 26.6 °F 19.1 °F 10.4 °F 51% 30.02 in 10.0 mi SE 6.9 mph - N/A   Overcast
9:30 AM 26.6 °F 20.0 °F 10.4 °F 51% 30.03 in 10.0 mi SSE 5.8 mph - N/A   Overcast
9:51 AM 28.4 °F 22.2 °F 10.4 °F 47% 30.02 in 10.0 mi SE 5.8 mph - N/A   Overcast
10:11 AM 30.2 °F 21.9 °F 8.6 °F 40% 30.01 in 10.0 mi SE 9.2 mph 16.1 mph N/A   Mostly Cloudy
10:30 AM 30.2 °F 21.9 °F 8.6 °F 40% 30.01 in 10.0 mi SSE 9.2 mph 16.1 mph N/A   Scattered Clouds
10:51 AM 32.0 °F 24.8 °F 8.6 °F 38% 30.00 in 10.0 mi SE 8.1 mph - N/A   Scattered Clouds
11:11 AM 33.8 °F 27.7 °F 10.4 °F 38% 30.00 in 10.0 mi SE 6.9 mph - N/A   Clear
11:30 AM 33.8 °F 27.7 °F 10.4 °F 38% 30.00 in 10.0 mi SSE 6.9 mph - N/A   Scattered Clouds
11:51 AM 33.8 °F 27.0 °F 8.6 °F 35% 30.00 in 10.0 mi SE 8.1 mph - N/A   Overcast
12:11 PM 35.6 °F 27.1 °F 10.4 °F 35% 29.99 in 10.0 mi SE 12.7 mph - N/A   Mostly Cloudy
12:31 PM 35.6 °F 29.9 °F 10.4 °F 35% 29.99 in 10.0 mi South 6.9 mph - N/A   Scattered Clouds
12:51 PM 35.6 °F 29.9 °F 10.4 °F 35% 29.98 in 10.0 mi ESE 6.9 mph - N/A   Scattered Clouds
1:11 PM 33.8 °F 24.8 °F 10.4 °F 38% 29.98 in 10.0 mi ESE 12.7 mph - N/A   Mostly Cloudy
1:51 PM 35.6 °F 28.6 °F 12.2 °F 38% 29.96 in 10.0 mi East 9.2 mph - N/A   Mostly Cloudy
2:11 PM 35.6 °F 28.0 °F 10.4 °F 35% 29.96 in 10.0 mi East 10.4 mph - N/A   Mostly Cloudy
2:31 PM 35.6 °F 29.2 °F 12.2 °F 38% 29.95 in 10.0 mi ESE 8.1 mph - N/A   Mostly Cloudy
2:51 PM 33.8 °F 26.4 °F 12.2 °F 41% 29.95 in 10.0 mi ESE 9.2 mph - N/A   Mostly Cloudy
3:31 PM 33.8 °F 26.4 °F 12.2 °F 41% 29.96 in 10.0 mi ESE 9.2 mph - N/A   Overcast
3:51 PM 33.8 °F 24.8 °F 12.2 °F 41% 29.96 in 10.0 mi ESE 12.7 mph 16.1 mph N/A   Overcast
4:11 PM 33.8 °F 25.3 °F 12.2 °F 41% 29.96 in 10.0 mi ESE 11.5 mph 17.3 mph N/A   Overcast
4:31 PM 33.8 °F 25.8 °F 10.4 °F 38% 29.95 in 10.0 mi SE 10.4 mph 18.4 mph N/A   Overcast
4:51 PM 32.0 °F 24.8 °F 10.4 °F 41% 29.96 in 10.0 mi SE 8.1 mph - N/A   Mostly Cloudy
5:11 PM 32.0 °F 23.0 °F 10.4 °F 41% 29.95 in 10.0 mi ESE 11.5 mph 17.3 mph N/A   Overcast
5:31 PM 32.0 °F 24.2 °F 8.6 °F 38% 29.95 in 10.0 mi SE 9.2 mph - N/A   Overcast
5:51 PM 30.2 °F 25.4 °F 8.6 °F 40% 29.95 in 10.0 mi ESE 4.6 mph - N/A   Overcast
6:11 PM 30.2 °F 23.4 °F 8.6 °F 40% 29.95 in 10.0 mi ESE 6.9 mph - N/A   Overcast
6:31 PM 30.2 °F 22.6 °F 6.8 °F 37% 29.96 in 10.0 mi ESE 8.1 mph - N/A   Overcast
6:51 PM 30.2 °F 22.6 °F 6.8 °F 37% 29.96 in 10.0 mi East 8.1 mph - N/A   Overcast
7:10 PM 30.2 °F 22.6 °F 6.8 °F 37% 29.96 in 10.0 mi ESE 8.1 mph - N/A   Overcast
7:31 PM 30.2 °F 21.9 °F 5.0 °F 34% 29.96 in 10.0 mi ESE 9.2 mph 17.3 mph N/A   Overcast
7:51 PM 30.2 °F 20.8 °F 5.0 °F 34% 29.96 in 10.0 mi East 11.5 mph 16.1 mph N/A   Overcast
8:10 PM 30.2 °F 22.6 °F 5.0 °F 34% 29.96 in 10.0 mi ESE 8.1 mph - N/A   Overcast
8:31 PM 28.4 °F 19.7 °F 5.0 °F 37% 29.96 in 10.0 mi East 9.2 mph - N/A   Overcast
8:51 PM 28.4 °F 19.7 °F 5.0 °F 37% 29.96 in 10.0 mi ESE 9.2 mph - N/A   Overcast
9:10 PM 28.4 °F 19.7 °F 5.0 °F 37% 29.96 in 10.0 mi East 9.2 mph - N/A   Overcast
9:31 PM 28.4 °F 19.7 °F 5.0 °F 37% 29.96 in 10.0 mi ESE 9.2 mph - N/A   Overcast
9:51 PM 28.4 °F 20.4 °F 5.0 °F 37% 29.96 in 10.0 mi East 8.1 mph - N/A   Overcast
10:10 PM 28.4 °F 19.7 °F 5.0 °F 37% 29.96 in 10.0 mi ESE 9.2 mph 16.1 mph N/A   Overcast
10:31 PM 28.4 °F 19.7 °F 6.8 °F 40% 29.96 in 10.0 mi East 9.2 mph - N/A   Overcast
10:51 PM 28.4 °F 19.7 °F 6.8 °F 40% 29.96 in 10.0 mi East 9.2 mph - N/A   Overcast
11:10 PM 28.4 °F 19.7 °F 6.8 °F 40% 29.96 in 10.0 mi East 9.2 mph - N/A   Overcast
11:31 PM 28.4 °F 19.1 °F 8.6 °F 43% 29.97 in 10.0 mi East 10.4 mph - N/A   Overcast
11:51 PM 28.4 °F 19.7 °F 8.6 °F 43% 29.97 in 10.0 mi East 9.2 mph - N/A   Overcast